Precipitable_Water
1.51 1.32 1.30 1.16 0.96 0.84 0.75 0.70 0.71 0.70 0.69 0.69 0.70 0.72 0.75 0.78 0.81 0.78 0.78 0.77 0.75 0.75 0.79 0.78 0.77 0.82 0.82 0.87 0.99 1.11 1.12 1.19 1.01 1.05 1.21 1.38 1.43 1.55 1.65 1.82 1.90 1.95 2.00
1.12 1.14 1.01 0.87 0.79 0.76 0.74 0.70 0.68 0.64 0.70 0.70 0.73 0.75 0.80 0.81 0.82 0.80 0.77 0.78 0.74 0.72 0.73 0.73 0.71 0.75 0.73 0.79 0.83 0.87 0.95 1.07 1.02 0.86 1.03 1.13 1.30 1.44 1.51 1.58 1.74 1.85 1.86
1.09 0.99 0.94 0.88 0.76 0.73 0.72 0.70 0.69 0.68 0.72 0.75 0.78 0.79 0.79 0.79 0.78 0.78 0.75 0.74 0.72 0.72 0.74 0.75 0.77 0.79 0.73 0.74 0.75 0.78 0.90 0.99 1.04 0.98 0.92 1.09 1.15 1.32 1.34 1.42 1.48 1.64 1.76
1.06 0.98 1.04 0.99 0.80 0.70 0.70 0.70 0.68 0.71 0.74 0.79 0.82 0.84 0.83 0.80 0.76 0.74 0.71 0.73 0.76 0.81 0.84 0.87 0.88 0.87 0.85 0.84 0.82 0.84 0.89 0.84 0.88 0.89 0.89 0.94 1.01 1.12 1.19 1.15 1.20 1.39 1.43
0.98 0.95 1.00 0.99 0.88 0.70 0.66 0.65 0.68 0.74 0.78 0.83 0.84 0.85 0.84 0.79 0.76 0.74 0.78 0.79 0.80 0.82 0.88 0.95 0.98 1.00 1.01 0.99 0.94 0.92 0.92 0.88 0.86 0.84 0.81 0.84 0.83 0.87 0.93 1.09 1.06 1.17 1.25
1.00 0.97 1.05 1.04 0.93 0.77 0.63 0.61 0.67 0.70 0.72 0.78 0.81 0.81 0.75 0.79 0.83 0.80 0.80 0.75 0.75 0.77 0.81 0.91 0.96 0.95 0.96 0.98 1.01 1.03 1.02 0.90 0.84 0.83 0.82 0.83 0.88 0.98 1.06 1.04 1.02 0.94 0.82
1.03 1.09 1.08 1.07 0.97 0.83 0.71 0.62 0.64 0.69 0.74 0.77 0.81 0.81 0.77 0.82 0.85 0.81 0.77 0.72 0.67 0.70 0.80 0.85 0.86 0.90 0.94 0.97 1.00 1.02 1.04 1.11 1.07 1.03 0.94 0.96 0.95 1.09 1.11 1.05 1.11 1.10 1.01
1.09 1.14 1.14 1.09 1.00 0.87 0.76 0.68 0.66 0.70 0.69 0.72 0.78 0.81 0.81 0.85 0.86 0.81 0.73 0.65 0.60 0.62 0.74 0.84 0.83 0.85 0.92 0.93 0.96 0.98 1.01 1.07 1.09 1.09 1.08 1.11 1.13 1.15 1.14 1.16 1.21 1.21 1.23
1.16 1.20 1.20 1.16 1.02 0.88 0.78 0.70 0.67 0.70 0.65 0.66 0.75 0.77 0.79 0.82 0.83 0.77 0.71 0.60 0.52 0.50 0.66 0.76 0.79 0.80 0.90 0.94 0.91 0.89 0.93 1.01 1.14 1.18 1.18 1.20 1.21 1.25 1.29 1.23 1.13 1.09 1.04
1.35 1.32 1.28 1.18 1.01 0.88 0.80 0.72 0.72 0.68 0.66 0.71 0.71 0.75 0.76 0.78 0.79 0.74 0.66 0.56 0.44 0.44 0.59 0.65 0.70 0.77 0.86 0.90 0.87 0.85 0.82 0.91 1.02 1.06 1.09 1.11 1.13 1.17 1.24 1.27 1.25 1.11 1.13
1.42 1.36 1.29 1.14 0.97 0.91 0.82 0.76 0.73 0.66 0.68 0.66 0.64 0.71 0.76 0.78 0.74 0.65 0.55 0.45 0.40 0.43 0.52 0.57 0.67 0.77 0.84 0.87 0.88 0.86 0.85 0.96 0.95 0.96 0.98 0.99 1.01 1.02 1.06 1.11 1.21 1.22 1.15
1.40 1.32 1.26 1.08 0.96 0.86 0.75 0.64 0.69 0.67 0.65 0.64 0.52 0.50 0.55 0.59 0.57 0.54 0.47 0.39 0.44 0.48 0.54 0.60 0.64 0.71 0.75 0.78 0.79 0.77 0.81 0.87 0.86 0.84 0.85 0.85 0.89 0.94 1.01 1.06 1.15 1.21 1.22
1.22 1.18 1.09 0.98 0.90 0.81 0.68 0.65 0.68 0.72 0.72 0.63 0.50 0.45 0.46 0.49 0.50 0.50 0.41 0.36 0.46 0.51 0.60 0.63 0.68 0.68 0.72 0.74 0.78 0.76 0.74 0.74 0.73 0.71 0.72 0.75 0.81 0.87 0.93 0.98 1.02 1.03 1.02
1.06 1.02 0.91 0.78 0.73 0.73 0.73 0.73 0.71 0.68 0.65 0.61 0.53 0.47 0.47 0.46 0.46 0.45 0.34 0.39 0.50 0.56 0.60 0.57 0.56 0.63 0.65 0.63 0.67 0.66 0.62 0.57 0.51 0.49 0.52 0.59 0.66 0.69 0.70 0.76 0.76 0.81 0.83
0.82 0.73 0.65 0.67 0.67 0.69 0.73 0.73 0.71 0.72 0.70 0.64 0.62 0.60 0.52 0.49 0.46 0.40 0.35 0.42 0.49 0.53 0.54 0.56 0.53 0.51 0.49 0.48 0.48 0.49 0.48 0.46 0.43 0.44 0.44 0.42 0.40 0.39 0.35 0.37 0.35 0.35 0.31
0.71 0.65 0.63 0.66 0.66 0.68 0.68 0.64 0.69 0.73 0.75 0.76 0.73 0.68 0.65 0.61 0.57 0.51 0.44 0.45 0.49 0.52 0.50 0.50 0.49 0.50 0.49 0.48 0.46 0.46 0.47 0.47 0.46 0.47 0.47 0.45 0.42 0.36 0.34 0.35 0.34 0.29 0.27
0.71 0.69 0.64 0.62 0.62 0.61 0.60 0.58 0.57 0.67 0.76 0.75 0.75 0.70 0.68 0.67 0.65 0.59 0.59 0.54 0.55 0.55 0.50 0.49 0.50 0.51 0.49 0.47 0.46 0.45 0.43 0.47 0.50 0.48 0.48 0.48 0.45 0.41 0.37 0.35 0.35 0.34 0.31
0.83 0.81 0.75 0.69 0.66 0.67 0.66 0.64 0.66 0.65 0.65 0.65 0.69 0.69 0.71 0.72 0.71 0.67 0.63 0.63 0.58 0.60 0.55 0.51 0.51 0.52 0.49 0.46 0.45 0.44 0.44 0.46 0.47 0.47 0.46 0.47 0.44 0.40 0.39 0.40 0.41 0.40 0.38
0.90 0.88 0.87 0.82 0.77 0.69 0.72 0.69 0.68 0.70 0.68 0.69 0.70 0.74 0.79 0.79 0.78 0.76 0.72 0.63 0.59 0.58 0.58 0.54 0.57 0.56 0.53 0.50 0.46 0.45 0.46 0.46 0.46 0.47 0.47 0.45 0.43 0.46 0.46 0.48 0.48 0.49 0.48
1.01 0.91 0.87 0.83 0.81 0.78 0.77 0.75 0.72 0.72 0.71 0.66 0.66 0.72 0.79 0.80 0.75 0.73 0.73 0.70 0.66 0.64 0.62 0.59 0.60 0.62 0.59 0.54 0.50 0.46 0.46 0.47 0.46 0.45 0.44 0.46 0.50 0.51 0.50 0.51 0.52 0.51 0.50
1.16 1.11 1.05 1.03 1.01 0.94 0.82 0.79 0.79 0.79 0.78 0.76 0.76 0.81 0.83 0.80 0.78 0.77 0.76 0.75 0.73 0.71 0.69 0.66 0.64 0.64 0.63 0.58 0.54 0.48 0.48 0.49 0.50 0.50 0.52 0.54 0.55 0.53 0.55 0.55 0.55 0.55 0.53
1.21 1.20 1.20 1.20 1.18 1.10 1.01 0.92 0.89 0.88 0.86 0.82 0.83 0.85 0.86 0.85 0.84 0.83 0.82 0.81 0.79 0.79 0.79 0.75 0.71 0.68 0.68 0.64 0.60 0.53 0.51 0.52 0.53 0.55 0.56 0.57 0.57 0.57 0.58 0.58 0.57 0.55 0.53
1.17 1.16 1.12 1.11 1.14 1.15 1.13 1.09 1.00 0.97 0.93 0.93 0.91 0.89 0.88 0.88 0.85 0.86 0.87 0.87 0.90 0.85 0.84 0.82 0.78 0.77 0.75 0.73 0.69 0.63 0.59 0.58 0.59 0.61 0.58 0.57 0.57 0.59 0.61 0.60 0.57 0.54 0.50
1.12 1.10 1.07 1.08 1.07 1.06 1.01 1.02 1.03 1.03 1.05 1.01 1.00 0.94 0.90 0.93 0.91 0.94 0.96 0.96 0.95 0.95 0.94 0.89 0.84 0.82 0.82 0.80 0.78 0.72 0.69 0.66 0.66 0.66 0.65 0.61 0.59 0.62 0.64 0.60 0.56 0.52 0.48
1.17 1.17 1.12 1.09 1.08 1.07 1.05 1.03 0.99 0.99 0.99 0.98 0.96 0.96 0.98 1.03 1.00 1.00 1.00 0.98 1.03 1.03 1.01 1.01 0.94 0.87 0.88 0.86 0.85 0.80 0.75 0.72 0.69 0.70 0.68 0.65 0.63 0.62 0.60 0.58 0.54 0.50 0.50
1.14 1.14 1.13 1.13 1.15 1.13 1.09 1.06 1.05 1.04 1.05 1.10 1.09 1.06 1.05 1.01 0.99 0.99 1.01 1.02 1.02 1.06 1.06 1.03 1.00 0.93 0.93 0.91 0.89 0.88 0.81 0.76 0.72 0.70 0.69 0.66 0.60 0.57 0.59 0.54 0.53 0.52 0.51
Wind_Speed
4 5 7 8 9 9 9 8 9 9 10 10 10 11 11 11 11 12 12 14 14 16 17 18 19 19 19 18 17 17 17 17 18 19 19 19 20 20 19 19 19 19 18
5 6 7 8 9 9 9 9 10 10 11 11 11 11 10 11 12 13 14 15 16 16 17 17 17 17 18 18 19 20 20 20 20 20 20 20 20 20 20 20 20 20 20
5 6 7 9 10 10 10 11 11 11 11 11 11 11 12 13 14 15 15 16 16 16 16 16 17 17 17 18 19 20 21 22 22 21 22 22 22 22 21 21 21 21 21
5 6 8 10 11 11 11 12 12 12 11 12 12 12 14 15 15 15 15 15 15 16 16 16 17 18 18 19 19 20 21 22 22 22 23 23 23 23 23 23 23 22 22
8 8 10 11 11 12 12 12 12 12 13 14 14 15 15 15 15 14 15 15 15 16 16 16 16 16 17 18 19 20 21 22 23 23 23 23 24 24 24 24 25 25 25
9 9 10 11 12 13 13 12 12 13 13 14 14 15 15 14 14 14 15 15 16 17 17 16 16 17 17 18 19 20 21 21 22 23 23 24 24 24 24 25 26 26 25
10 10 11 12 13 14 14 14 14 14 15 15 16 16 14 14 15 15 16 17 17 17 17 17 17 18 18 19 19 19 20 20 21 22 23 23 24 25 26 26 25 25 25
13 13 13 14 15 15 15 16 16 15 16 16 16 15 15 16 16 17 18 18 18 18 18 17 18 18 19 19 19 19 20 21 22 22 23 23 24 26 27 27 27 26 26
16 16 16 17 17 18 18 17 17 17 17 16 16 16 16 17 17 18 18 18 18 18 17 17 18 18 19 19 19 20 21 21 21 21 22 23 24 24 24 25 26 26 26
18 18 18 18 19 19 19 18 17 17 17 16 16 17 17 17 16 16 17 17 17 17 16 17 18 18 19 19 20 21 21 22 22 23 23 24 24 24 24 23 23 24 24
20 20 21 21 21 20 20 19 18 17 16 16 16 16 16 15 15 16 17 17 18 18 17 18 18 18 19 20 20 21 21 21 21 22 23 24 24 24 23 23 22 22 22
22 21 22 22 22 21 20 19 18 17 17 17 16 16 16 16 16 17 17 18 18 18 18 18 18 19 19 19 19 19 19 20 21 21 22 23 23 23 22 21 20 20 20
22 22 23 23 22 21 20 18 18 18 18 17 17 17 17 17 17 18 18 18 18 18 18 18 18 19 19 19 19 18 19 19 19 19 19 20 19 18 18 18 18 18 19
22 23 23 23 23 21 20 19 19 18 18 18 18 18 18 18 18 18 18 18 18 18 18 18 18 18 18 18 17 18 18 18 18 17 17 17 16 15 15 15 16 17 17
22 22 22 21 21 21 20 20 20 20 19 19 19 19 19 18 18 18 18 18 18 18 18 17 17 17 17 17 17 17 18 18 17 17 16 15 14 13 13 13 13 13 14
21 21 20 20 20 20 20 20 20 21 20 20 21 20 20 20 19 18 18 18 19 19 18 18 18 18 18 18 17 17 17 17 17 16 15 14 13 12 13 13 14 15 16
19 19 19 20 19 19 19 19 19 20 20 21 21 21 21 21 20 20 19 19 19 19 18 18 18 19 18 18 17 17 17 16 15 14 14 13 13 13 14 15 16 17 19
17 18 19 19 20 20 20 21 21 20 21 21 21 21 22 22 21 21 21 20 20 20 20 19 19 19 19 18 18 17 16 15 15 14 14 14 14 16 17 18 19 20 21
18 18 19 19 20 20 20 20 21 21 22 22 22 21 21 22 22 22 22 22 22 21 21 20 20 20 20 19 18 18 17 16 15 15 15 15 16 17 19 20 21 22 24
20 20 20 19 20 20 21 21 22 23 23 23 23 23 23 22 22 23 23 23 23 23 22 22 21 21 20 20 19 18 17 17 16 16 16 16 18 19 20 21 23 25 26
20 21 21 21 21 22 22 23 23 23 22 22 23 23 24 23 24 24 23 24 24 24 23 23 23 22 21 21 20 19 18 18 17 17 18 18 19 20 22 23 25 26 28
24 24 24 24 24 24 23 24 24 24 24 24 25 25 25 26 26 26 26 26 25 26 25 24 24 23 22 21 21 20 20 19 19 19 20 20 21 22 23 25 26 28 29
26 26 26 27 27 26 26 26 26 26 27 27 28 28 29 28 29 29 29 29 28 28 27 26 26 24 23 23 22 22 22 22 21 21 22 22 23 24 25 26 27 29 30
27 26 26 25 26 26 27 28 28 29 30 30 30 31 30 30 30 30 30 30 29 28 28 29 28 27 25 24 24 24 24 24 24 24 24 24 24 25 25 26 28 29 31
25 26 27 26 27 27 28 28 29 29 30 31 31 32 33 32 32 31 31 31 31 32 31 30 29 29 28 27 25 25 25 26 26 26 25 25 25 25 25 27 29 30 31
26 27 27 27 29 30 31 31 32 32 32 32 32 33 32 32 32 31 31 32 32 32 32 31 31 30 29 28 27 27 27 27 27 26 25 24 24 25 26 28 30 30 31
Wind_Direction
255 280 294 296 296 292 289 284 277 275 275 277 278 279 281 284 285 286 286 286 286 286 285 284 283 282 281 279 278 279 280 280 281 281 281 283 281 281 280 279 278 275 273
266 289 298 301 297 292 289 286 282 279 277 278 279 281 282 286 288 289 290 290 290 290 289 288 287 285 283 280 278 279 279 281 281 282 283 283 282 282 279 279 278 275 272
274 292 302 308 304 295 290 287 283 280 278 278 280 279 284 289 291 291 292 292 291 291 291 290 290 289 286 283 281 281 280 281 281 281 282 282 282 282 281 279 277 276 274
272 292 306 309 309 300 292 287 283 278 276 277 281 283 286 291 293 294 293 293 293 293 293 293 292 289 288 287 284 283 283 284 283 281 281 281 281 281 280 279 278 276 276
273 287 299 308 312 306 297 289 282 278 278 279 280 284 288 290 293 295 296 295 295 295 295 294 294 295 293 291 289 287 285 285 285 285 284 282 281 281 281 279 277 276 275
273 284 296 304 308 307 303 294 287 282 281 281 283 285 288 287 292 296 299 299 298 297 295 294 295 297 298 297 295 292 290 288 286 286 285 284 283 282 281 280 278 276 274
270 281 292 302 307 306 302 295 288 285 285 285 287 286 283 286 290 295 300 299 299 297 296 294 295 297 299 299 299 296 295 292 290 288 287 286 285 283 282 280 278 276 274
270 278 286 294 301 304 303 297 290 287 288 285 285 287 285 287 291 295 299 299 299 297 295 294 295 296 298 298 298 299 299 297 294 291 289 289 289 288 283 279 276 276 276
272 276 282 289 295 298 299 296 289 286 289 285 284 285 286 288 291 296 299 300 301 299 296 295 297 298 299 298 298 300 299 300 299 297 295 294 293 292 291 283 278 276 274
272 273 279 286 291 294 296 293 288 287 288 286 285 285 286 289 291 297 301 303 304 303 300 299 301 301 300 299 299 300 300 298 298 297 296 296 295 293 291 287 283 277 274
275 275 278 283 286 289 292 289 284 285 285 287 291 290 286 287 291 296 302 303 304 303 302 302 302 303 302 303 303 303 302 300 300 299 299 298 296 294 291 288 282 278 275
275 275 278 281 284 287 287 285 281 281 282 285 288 289 287 287 290 296 302 304 303 303 304 304 303 305 306 306 306 307 307 306 305 305 304 303 299 296 291 288 284 280 278
276 277 279 281 281 283 282 279 279 280 280 281 284 286 286 286 289 293 300 302 303 303 304 305 304 306 308 308 306 308 310 311 311 312 312 312 307 302 297 292 287 284 283
276 279 280 281 280 278 277 277 276 277 278 279 282 283 285 288 291 291 296 299 302 303 304 305 305 305 309 309 309 309 311 312 314 314 315 314 311 310 309 304 298 294 289
281 281 280 279 277 276 276 275 274 275 277 279 280 282 283 288 292 292 294 296 298 301 302 303 306 308 308 309 308 309 311 311 311 309 309 308 310 311 314 314 312 308 303
283 282 280 279 280 276 275 277 275 273 276 278 280 280 282 283 287 291 294 294 295 298 298 299 301 304 305 305 304 306 308 309 309 307 304 300 301 304 309 313 314 312 308
281 282 281 279 278 277 275 276 277 276 277 279 280 279 279 280 282 286 290 293 295 296 294 295 297 300 301 300 300 304 305 307 307 304 302 296 295 298 302 306 308 309 309
283 283 283 282 279 277 277 276 277 277 279 282 282 278 279 279 280 282 285 289 292 293 292 293 294 296 296 295 295 298 300 302 301 302 300 296 294 296 299 301 304 306 308
285 285 285 285 284 279 279 279 278 278 278 280 280 281 281 281 280 280 281 284 287 290 290 290 291 293 293 293 291 290 291 294 295 296 296 296 296 296 299 300 302 304 306
287 285 285 286 285 282 280 280 280 281 281 280 277 278 282 281 282 280 280 281 283 286 288 286 287 290 290 289 288 285 285 288 290 291 293 296 297 298 299 301 303 305 307
289 285 282 284 285 286 283 281 281 281 280 279 278 279 279 281 281 281 282 281 281 282 286 285 284 287 288 285 285 282 281 283 285 287 291 294 298 299 301 302 304 306 307
286 285 285 283 285 285 284 282 281 281 281 280 280 280 280 280 279 280 281 282 282 280 282 283 284 283 285 283 282 279 277 279 283 285 288 291 295 299 302 303 306 308 309
286 284 283 283 282 282 282 282 281 281 281 281 281 281 280 280 279 279 280 280 280 281 279 279 280 281 280 282 280 276 275 277 280 284 286 289 293 298 302 303 306 309 310
286 284 286 284 284 283 283 283 282 282 280 281 282 280 280 281 279 278 280 280 280 280 279 276 275 276 277 280 279 275 274 276 278 281 284 287 291 297 301 304 307 309 310
290 286 285 284 286 286 287 286 285 285 284 282 282 281 281 279 279 280 278 277 278 279 278 276 273 271 273 276 278 276 274 274 276 280 282 284 288 293 300 304 307 309 310
291 291 290 287 287 287 287 287 285 285 286 285 283 282 281 280 279 280 279 278 277 278 274 275 273 267 270 273 273 275 276 277 276 277 279 282 286 292 298 304 307 309 310